Probability
0 0 0 0 0 0 0 0 0 0 1 5 7 8 12 20 26 27 30 35 37 31 26 27 32 33 32 28 26 26 26 24 19 14 11 10 9 7 6 5 4 4 6 6
0 0 0 0 0 0 0 0 0 0 2 6 8 8 11 18 23 25 28 33 36 31 26 28 31 32 31 29 26 24 23 21 16 12 11 10 8 7 5 4 3 4 4 4
0 0 0 0 0 0 0 0 0 0 1 5 7 7 9 14 19 21 23 28 32 29 26 27 30 31 30 28 25 22 18 14 11 11 11 10 8 6 4 3 3 3 2 1
0 0 0 0 0 0 0 0 0 0 0 1 2 3 5 10 15 17 18 23 27 27 25 26 28 29 29 27 24 20 15 10 9 10 11 10 7 5 4 3 3 1 1 0
0 0 0 0 0 0 0 0 0 0 0 0 0 0 1 5 9 12 16 21 27 28 25 24 25 27 27 25 23 18 14 10 8 9 11 9 6 3 2 2 2 1 0 0
0 0 0 0 0 0 0 0 0 0 0 0 0 0 0 1 4 7 12 19 25 27 24 21 22 25 25 23 20 16 14 11 9 8 9 7 5 2 1 1 1 0 0 0
0 0 0 0 0 0 0 0 0 0 0 0 0 0 0 0 2 4 8 13 20 24 23 19 19 21 21 19 16 14 14 12 8 6 6 4 3 2 1 0 0 0 0 0
0 0 0 0 0 0 0 0 0 0 0 0 0 0 1 1 3 4 6 10 16 21 21 17 15 16 15 13 12 12 13 11 8 5 3 1 1 1 1 0 0 0 0 0
0 0 0 0 0 0 0 0 0 0 0 0 0 0 2 4 6 8 8 10 14 17 17 15 14 12 11 10 10 10 11 10 8 5 2 0 0 0 0 0 0 0 0 0
0 0 0 0 0 0 0 0 0 0 0 0 0 0 1 5 8 10 11 12 13 15 16 16 15 12 10 9 9 10 9 9 8 6 3 1 0 0 0 0 0 0 0 0
0 0 0 0 0 0 0 0 0 0 0 0 0 0 0 3 7 12 13 13 15 15 15 15 14 12 9 8 9 10 9 8 7 6 5 3 1 0 0 0 0 0 0 0
0 0 0 0 0 0 0 0 0 0 0 0 0 0 0 2 7 12 15 14 14 14 12 11 11 9 8 8 9 10 9 8 7 6 5 4 2 1 0 0 0 0 0 0
0 0 0 0 0 0 0 0 0 0 0 0 0 0 1 3 8 13 14 11 11 10 9 7 7 7 6 7 9 10 9 8 7 5 4 3 2 1 0 0 0 0 0 1
0 0 0 0 0 0 0 0 0 0 0 0 0 0 1 3 7 10 10 9 8 7 5 4 4 5 5 5 8 9 10 9 6 4 3 3 2 1 0 0 0 1 1 2
0 0 0 0 0 0 0 0 0 0 0 0 0 0 0 2 4 6 7 7 6 4 2 1 2 3 3 5 7 8 9 8 6 5 4 3 1 0 0 0 0 1 2 2
0 0 0 0 0 0 0 0 0 0 0 0 0 0 0 1 3 4 5 6 5 3 1 0 1 2 3 5 6 7 7 7 7 6 6 4 1 0 1 1 1 1 1 1
0 0 0 0 0 0 0 0 0 0 0 0 0 0 0 1 3 4 4 4 4 3 2 1 0 1 3 4 5 6 6 7 7 7 6 5 2 1 2 2 2 1 0 0
0 0 0 0 0 0 0 0 0 0 0 0 0 0 0 1 3 3 3 3 3 3 2 1 0 1 2 3 4 5 6 6 6 5 5 5 4 4 3 3 2 1 0 0
0 0 0 0 0 0 0 0 0 0 0 0 0 0 0 1 2 3 3 3 3 3 2 1 0 1 2 3 3 4 5 5 4 3 3 4 5 5 4 2 1 0 0 0
0 0 0 0 0 0 0 0 0 0 0 0 0 0 0 1 2 2 2 2 2 2 1 0 0 0 1 2 3 4 5 5 3 2 2 3 4 4 3 1 0 0 0 0
0 1 1 0 0 0 0 0 0 0 0 0 0 0 0 0 1 1 0 0 0 0 0 0 0 0 0 1 3 4 5 4 3 2 3 3 3 2 1 0 0 0 0 0
1 1 1 0 0 0 0 0 0 0 0 0 0 0 0 0 0 0 0 0 0 0 0 0 0 0 1 1 2 2 3 3 3 3 3 2 1 1 0 0 0 0 0 0
0 1 1 0 0 0 0 0 0 0 0 0 0 0 0 0 0 0 0 0 0 0 0 0 0 0 1 1 1 1 2 3 3 2 1 1 0 0 0 0 0 0 0 0
0 0 0 0 0 0 0 0 0 0 0 0 0 0 0 0 0 1 1 1 1 0 0 0 0 0 1 1 0 1 2 3 2 1 0 0 0 0 0 0 0 0 0 0
0 0 0 0 0 0 0 0 0 0 0 0 0 0 0 0 0 1 2 2 2 1 0 0 0 0 0 0 0 1 2 2 1 0 0 0 0 0 0 0 0 0 0 0
0 0 0 0 0 0 0 0 0 0 0 0 0 0 0 0 0 1 3 3 2 1 0 0 0 0 0 0 0 0 1 1 0 0 0 0 0 0 0 0 0 0 0 0
Wind_Speed
2 3 3 7 6 7 4 2 4 5 3 2 3 5 7 8 8 9 9 9 10 9 6 6 6 7 7 6 7 6 6 5 4 3 2 2 2 1 2 1 1 2 2 2
4 4 10 7 5 3 2 2 4 4 3 2 2 3 5 7 9 10 11 11 11 9 8 7 6 6 6 6 5 5 5 5 4 3 2 2 2 1 1 1 1 1 2 2
5 9 6 3 3 2 3 3 3 3 3 4 3 3 2 2 4 4 7 8 9 11 10 8 7 6 6 6 5 4 4 4 3 3 3 3 3 2 2 1 1 1 1 1
5 6 3 2 4 3 4 5 3 2 2 2 1 2 6 3 4 7 7 8 9 10 9 9 8 8 7 6 6 6 5 4 3 4 4 4 3 2 1 1 1 0 1 1
6 5 4 5 6 4 5 3 2 1 2 1 2 1 6 1 5 7 9 10 10 11 11 10 8 8 7 6 6 5 5 4 3 4 4 4 3 2 1 1 1 1 1 1
7 5 5 6 5 2 2 4 5 5 5 1 4 2 5 4 6 6 8 10 11 10 9 9 8 7 6 6 6 5 5 4 4 4 4 4 4 3 3 2 1 0 1 1
7 7 5 2 1 4 4 6 4 6 4 4 3 1 6 5 4 7 8 9 10 9 9 9 9 9 8 7 7 6 6 5 4 4 4 3 4 4 4 3 2 1 0 1
2 6 5 2 2 3 1 7 6 3 3 4 3 2 4 3 1 3 5 6 8 8 9 9 10 10 9 8 7 7 7 5 4 4 3 3 3 3 2 3 3 2 2 2
1 5 6 4 2 2 1 1 6 6 1 1 4 3 3 3 3 4 4 4 6 8 9 9 9 9 8 8 7 8 7 5 5 4 4 3 2 2 2 2 2 2 2 1
3 4 6 4 5 5 3 4 5 5 3 2 4 3 4 3 3 1 3 4 6 8 9 8 8 8 7 7 6 7 7 6 5 4 4 3 3 3 2 2 1 1 1 1
1 1 5 3 1 2 3 3 4 3 4 5 3 6 4 6 5 5 5 6 7 8 8 8 7 7 7 6 5 6 6 5 4 4 3 3 3 3 2 2 2 1 1 1
2 3 2 5 5 2 2 2 5 4 3 3 3 7 4 5 4 4 3 3 5 6 6 7 7 7 6 6 5 6 5 5 5 4 4 3 3 3 2 2 2 2 1 1
2 4 3 8 7 6 3 1 2 4 3 3 3 7 2 0 1 2 3 4 5 6 6 6 6 6 7 6 6 5 5 5 4 4 4 3 3 3 3 2 2 2 2 2
2 2 5 5 7 4 5 5 2 3 3 3 6 6 5 3 3 3 4 5 5 6 7 6 6 5 6 6 5 5 5 4 5 5 5 4 4 4 3 3 2 2 2 2
4 0 3 6 7 5 5 7 5 3 6 6 7 6 8 7 7 6 6 6 7 7 8 8 7 5 4 5 5 5 5 5 5 5 5 5 4 3 3 2 2 2 2 2
2 1 2 5 5 6 7 7 5 3 3 4 4 6 5 4 4 5 6 9 9 8 8 8 7 6 6 6 6 5 5 4 5 5 5 5 4 3 3 3 2 2 1 1
1 2 1 4 6 5 5 5 3 2 2 4 5 5 3 3 5 7 7 8 8 7 7 7 6 6 6 6 6 6 5 4 4 4 4 4 4 4 3 3 2 2 2 1
4 2 2 2 3 4 6 3 0 0 1 1 2 3 4 5 6 5 5 6 6 6 6 6 5 5 4 4 4 5 5 5 4 4 4 4 4 4 3 2 2 2 2 2
7 5 2 1 2 6 6 3 2 1 2 1 3 3 2 4 5 2 1 4 5 6 5 5 5 4 4 5 5 5 4 4 4 3 4 4 4 3 3 3 3 2 2 2
3 4 4 2 2 5 6 4 2 2 2 2 3 4 4 5 2 3 2 5 6 6 5 4 4 3 4 4 5 5 4 4 3 3 4 4 3 3 3 3 2 2 2 2
2 1 3 3 4 7 6 4 2 1 6 3 3 5 4 3 4 4 6 6 6 6 5 5 5 4 4 4 5 5 4 4 4 3 3 3 3 2 3 2 2 2 2 2
3 2 3 3 3 7 4 2 1 5 2 2 3 4 4 3 4 5 7 7 7 6 5 5 4 3 3 4 5 5 4 4 3 3 3 3 2 2 1 2 2 2 2 2
3 4 4 5 7 6 3 2 3 2 2 2 3 3 5 5 5 6 6 6 5 5 5 4 4 3 3 4 5 5 4 4 4 3 2 2 2 1 1 2 2 2 2 2
4 1 1 2 5 4 2 0 0 1 1 2 4 5 6 5 6 5 6 5 5 4 4 3 4 4 4 4 4 5 4 4 4 4 2 2 1 2 2 2 2 2 3 3
5 3 2 5 5 3 2 1 1 1 2 3 5 5 6 6 6 5 5 5 4 3 3 3 3 4 5 4 4 4 4 5 4 3 2 2 2 2 2 3 3 4 4 5
5 5 5 7 6 3 5 4 2 2 3 4 5 4 5 6 6 5 5 4 4 4 3 3 3 4 4 4 4 4 4 5 5 3 2 2 2 2 2 2 4 5 6 9
Wind_Direction
323 57 261 244 216 208 222 247 278 279 283 87 152 182 192 173 165 163 165 163 165 164 156 139 131 131 131 137 142 140 135 132 122 118 121 116 115 112 100 97 84 75 69 68
10 275 248 242 250 242 247 280 287 300 312 82 145 204 188 175 186 182 176 176 169 155 148 148 145 142 146 148 142 142 137 135 142 148 143 141 136 135 132 97 58 50 68 61
228 251 253 245 274 296 293 223 235 258 351 37 68 343 276 220 191 182 184 174 165 164 162 164 160 159 153 149 148 143 138 132 135 126 105 93 73 60 50 50 44 5 34 45
266 269 294 277 259 218 261 240 194 177 78 307 102 273 278 216 203 193 191 181 176 170 167 170 164 161 158 153 150 140 135 132 131 125 129 135 137 148 192 185 161 45 23 39
273 282 294 279 255 221 228 211 135 116 111 17 336 170 280 223 218 213 197 191 183 175 171 171 169 165 156 144 141 139 132 133 138 134 138 139 133 144 145 119 107 54 7 359
258 263 235 235 258 221 166 54 32 46 65 2 264 200 268 238 217 213 203 194 183 177 170 166 162 152 143 139 139 139 142 146 149 140 139 147 145 141 136 134 141 47 345 335
315 307 290 251 332 350 79 78 28 4 11 265 269 211 248 254 235 204 192 190 181 171 165 164 160 160 155 153 156 155 152 153 153 145 150 157 155 156 159 168 170 166 204 275
331 305 304 324 199 206 200 133 150 190 231 274 312 247 263 305 275 157 165 169 167 169 168 165 168 167 164 165 166 160 157 154 154 147 150 152 160 163 170 178 174 177 190 220
210 278 299 309 313 146 117 143 159 138 190 305 288 283 308 354 42 87 111 141 163 170 168 167 169 166 166 171 173 164 160 157 163 165 159 149 150 157 167 173 167 175 192 212
179 264 295 316 19 7 132 144 91 107 142 251 279 263 242 264 258 185 158 166 176 171 167 166 167 165 166 170 168 160 161 167 171 168 164 157 159 159 154 147 174 213 215 224
76 188 309 356 25 290 6 51 95 113 154 165 246 266 224 207 212 202 197 181 175 168 167 162 158 156 158 156 159 160 162 161 167 168 163 155 161 156 147 155 190 212 240 263
19 103 300 283 271 245 151 158 139 149 223 177 192 263 258 215 206 196 199 174 164 156 154 147 144 147 153 162 169 169 170 170 174 170 163 164 162 158 159 175 205 213 240 273
23 78 11 340 341 358 14 4 135 134 133 171 197 260 289 198 197 184 170 158 154 148 147 143 143 155 168 173 173 170 171 173 172 163 159 159 165 167 178 198 211 221 241 272
69 122 165 214 248 272 299 300 280 128 159 220 229 243 268 240 212 184 169 166 160 154 153 152 153 166 174 171 172 169 169 170 166 161 164 172 184 186 193 204 214 231 241 256
73 162 254 256 266 270 281 284 280 224 202 208 240 232 237 221 199 183 169 164 160 162 165 164 164 165 166 166 168 168 171 173 169 165 173 189 199 196 196 206 221 237 246 247
55 196 312 300 297 304 299 294 288 263 218 207 227 254 240 196 169 167 168 172 174 177 175 172 170 168 166 170 171 168 170 172 167 171 184 192 194 193 199 213 221 228 250 260
256 151 34 291 309 332 297 277 267 262 229 197 219 230 170 149 183 186 184 184 180 179 175 174 174 175 174 176 172 171 168 165 167 177 185 190 192 194 200 206 199 213 240 269
195 161 151 279 352 265 251 275 212 151 303 170 160 159 160 180 188 172 168 167 169 168 166 167 168 169 172 168 164 161 158 163 171 184 189 191 191 198 202 195 206 229 239 248
179 159 156 161 247 276 288 276 238 201 289 198 152 156 132 120 88 60 143 146 152 153 150 157 167 163 164 161 161 156 159 163 173 185 191 192 187 186 190 204 226 237 234 266
120 131 146 166 208 250 258 284 279 99 293 280 155 156 146 122 123 236 180 135 129 129 133 139 144 143 157 165 153 150 162 167 183 196 196 191 184 181 196 215 233 236 239 262
14 31 183 192 222 259 264 287 353 137 243 245 168 158 155 168 194 180 144 133 135 136 142 146 148 156 170 163 145 150 164 187 200 190 179 177 181 192 205 215 227 236 256 288
205 208 207 173 214 253 287 10 151 221 239 169 159 160 148 139 129 129 135 139 141 143 148 153 152 166 173 157 147 155 180 198 186 169 168 180 199 217 204 214 255 265 264 283
228 207 204 197 219 243 262 213 223 171 160 181 167 159 145 139 144 140 143 148 151 153 156 156 153 164 178 166 159 170 198 187 167 162 178 199 219 240 234 231 253 271 268 260
286 286 220 274 270 275 292 290 167 140 177 191 161 141 138 146 148 146 150 152 151 152 156 154 151 170 185 185 176 185 192 172 158 166 188 204 216 260 274 264 248 247 253 258
260 289 296 280 277 320 324 249 274 335 100 123 132 134 140 142 146 150 151 155 157 153 158 155 167 181 188 187 188 190 182 160 159 174 191 215 230 241 264 271 256 246 244 234
237 219 218 239 237 225 255 244 224 171 161 153 139 131 139 143 150 144 148 158 155 155 157 164 178 176 181 178 185 194 180 158 158 173 200 223 240 261 262 273 299 293 270 270